Regional Weather Roundup
Issued by NWS Kansas City/Pleasant Hill, MO

Home | Current Version | Previous Version | Graphics & Text | Print | Product List | Glossary Off
Versions: 1 2 3 4 5 6 7 8 9 10 11 12 13 14 15 16 17 18 19 20 21 22 23 24 25 26 27

000
ASUS43 KEAX 260210
RWREAX

WEATHER ROUNDUP FOR EASTERN KANSAS AND NORTHWEST MISSOURI
NATIONAL WEATHER SERVICE KANSAS CITY/PLEASANT HILL MO
900 PM CDT WED MAY 25 2016

KSZ040-057-103>105-MOZ028-029-037-043-260300-
...KANSAS CITY METROPOLITAN AREA...

CITY           SKY/WX    TMP DP  RH WIND       PRES   REMARKS
K.C. INTL      MOCLDY    74  67  78 S8        29.86S
K.C. DOWNTOWN  CLOUDY    80  67  64 S8        29.84S
LEES SUMMIT    MOCLDY    78  68  71 S8        29.87R
OLATHE - IXD   MOCLDY    76  70  82 SE7       29.86S
OLATHE - OJC   MOCLDY    75  68  78 SE7       29.86S
LAWRENCE       CLOUDY    78  70  76 SE13      29.84R

$$

MOZ001>008-011>017-020>025-030>033-038>040-044>046-053-054-260300-
...NORTHERN AND CENTRAL MISSOURI...

CITY           SKY/WX    TMP DP  RH WIND       PRES   REMARKS
ST. JOSEPH     CLOUDY    76  67  73 S6        29.84S
MOSBY          MOCLDY    79  64  61 SE5       29.85F
WARRENSBURG    CLEAR     73  64  73 SE7       29.88S
WHITEMAN AFB   MOCLDY    76  69  76 S9        29.89R
CLINTON        PTCLDY    75  66  73 S7        29.90S
SEDALIA        MOCLDY    75  66  73 S8        29.92R
WARSAW         NOT AVBL
CHILLICOTHE      N/A     76  68  76 CALM      29.88S
KIRKSVILLE     CLOUDY    73  64  73 S8        29.91R

$$

MOZ041-047>049-056>058-063>065-088>090-097-260300-
...EASTERN AND SOUTHERN MISSOURI...

CITY           SKY/WX    TMP DP  RH WIND       PRES   REMARKS
ST. LOUIS INTL PTCLDY    79  62  56 S10       29.96R
SPIRIT OF STL  CLEAR     76  64  66 S6        29.94R
COLUMBIA       CLEAR     73  64  73 S7        29.93R
JEFFERSON CITY CLEAR     76  64  66 SE6       29.92R
ROLLA          CLEAR     71  64  78 S9        29.95S
SPRINGFIELD    CLOUDY    75  66  73 SE14      29.95S
BRANSON        PTCLDY    72  68  88 SE12      29.99S
JOPLIN         CLEAR     77  71  82 S9G17     29.90S
WEST PLAINS    MOCLDY    72  66  81 S8        30.03S

$$

IAZ060-094-KSZ022-034>040-054-083-096-NEZ052-066-093-260300-
...KANSAS...SOUTHEAST NEBRASKA AND IOWA...

CITY           SKY/WX    TMP DP  RH WIND       PRES   REMARKS
TOPEKA         CLOUDY    78  69  73 E8        29.82F
MANHATTAN      TSTM      76  57  51 S10G33    29.83R
EMPORIA        CLEAR     77  73  87 SE9       29.81S
CHANUTE        CLEAR     79  72  79 S14       29.84S
WICHITA        PTCLDY    82  71  69 S16G24    29.80R
OMAHA          MOCLDY    75  66  73 SE7       29.81F
LINCOLN        PTCLDY    73  67  81 CALM      29.82S
FALLS CITY     CLOUDY    75  68  78 SE3       29.82S
LAMONI         CLOUDY    74  65  73 S6        29.86F
DES MOINES     CLOUDY    76  64  66 S6        29.85S

$$





USA.gov is the U.S. government's official web portal to all federal, state and local government web resources and services.